Date String (YYYY-MM-DD hh:mm:ss) UTC,Instrument flags,Ambient pressure (hPa),Sample flow (lpm),Bypass flow (lpm),Sample temperature (°C),Ambient temperature (°C),ASC tube jacket temperature (°C),LED temperature (°C),Box temperature (°C),Sample RH (%),Span deviation,Mass concentration (μg/m³),Mass concentration (μg/m³),Mass concentration (μg/m³)
DateTimeUTC,F1_M11,P_M11,Q1_M11,Q2_M11,T1_M11,T2_M11,T3_M11,T4_M11,T5_M11,U1_M11,ZSPAN_M11,X0_M11,X2_M11,X1_M11
2023-05-07 21:00:00,,0827.4,4.99,0.00,30.7,29.0,00.0,38.9,32.2,12.7,0000.0,0007.55,0003.38,0002.50
2023-05-07 21:01:00,,0827.4,4.99,0.00,30.6,27.3,00.0,38.8,32.0,12.5,0000.0,0007.46,0003.35,0002.51
2023-05-07 21:02:00,,0827.4,5.00,0.00,30.6,26.6,00.0,38.8,31.8,12.7,0000.0,0007.45,0003.38,0002.53
2023-05-07 21:03:00,,0827.4,5.00,0.00,30.5,26.7,00.0,38.8,31.7,13.0,0000.0,0007.25,0003.34,0002.53
2023-05-07 21:04:00,,0827.4,5.01,0.00,30.4,27.0,00.0,38.8,31.7,13.1,0000.0,0007.43,0003.37,0002.52
2023-05-07 21:05:00,,0827.3,5.00,0.00,30.4,27.3,00.0,38.8,31.7,13.3,0000.0,0008.11,0003.39,0002.51
2023-05-07 21:06:00,,0827.4,4.99,0.00,30.4,27.7,00.0,38.8,31.7,13.1,0000.0,0008.27,0003.38,0002.51
2023-05-07 21:07:00,,0827.4,4.99,0.00,30.4,28.0,00.0,38.8,31.8,13.0,0000.0,0008.22,0003.33,0002.48
2023-05-07 21:08:00,,0827.4,5.00,0.00,30.4,28.2,00.0,38.8,31.8,13.0,0000.0,0008.08,0003.31,0002.47
2023-05-07 21:09:00,,0827.4,5.00,0.00,30.4,28.4,00.0,38.8,31.9,12.7,0000.0,0007.90,0003.29,0002.42
2023-05-07 21:10:00,,0827.4,5.01,0.00,30.4,28.6,00.0,38.8,31.9,12.6,0000.0,0007.80,0003.24,0002.36
2023-05-07 21:11:00,,0827.3,4.99,0.00,30.4,28.7,00.0,38.8,32.0,12.9,0000.0,0007.75,0003.20,0002.30
2023-05-07 21:12:00,,0827.4,4.99,0.00,30.4,28.8,00.0,38.8,32.0,12.8,0000.0,0007.77,0003.17,0002.24
2023-05-07 21:13:00,,0827.4,5.01,0.00,30.4,29.0,00.0,38.8,32.0,12.8,0000.0,0007.76,0003.15,0002.17
2023-05-07 21:14:00,,0827.4,5.00,0.00,30.5,29.0,00.0,38.8,32.0,12.6,0000.0,0007.69,0003.11,0002.09
2023-05-07 21:15:00,,0827.4,5.01,0.00,30.5,29.1,00.0,38.8,32.1,12.5,0000.0,0007.50,0003.00,0002.02
2023-05-07 21:16:00,,0827.4,5.00,0.00,30.5,29.2,00.0,38.8,32.1,12.3,0000.0,0005.65,0002.86,0001.95
2023-05-07 21:17:00,,0827.4,4.99,0.00,30.5,29.2,00.0,38.8,32.2,12.3,0000.0,0005.24,0002.82,0001.89
2023-05-07 21:18:00,,0827.4,4.99,0.00,30.6,29.3,00.0,38.9,32.2,12.3,0000.0,0005.16,0002.78,0001.87
2023-05-07 21:19:00,,0827.4,5.00,0.00,30.6,29.4,00.0,38.9,32.2,12.4,0000.0,0005.31,0002.76,0001.82
2023-05-07 21:20:00,,0827.4,5.00,0.00,30.6,29.4,00.0,38.9,32.2,12.7,0000.0,0005.61,0002.76,0001.77
2023-05-07 21:21:00,,0827.4,5.00,0.00,30.7,29.4,00.0,38.9,32.2,12.3,0000.0,0005.91,0002.72,0001.76
2023-05-07 21:22:00,,0827.4,5.01,0.00,30.7,29.4,00.0,38.9,32.3,12.4,0000.0,0006.00,0002.74,0001.75
2023-05-07 21:23:00,,0827.4,4.98,0.00,30.7,28.1,00.0,38.9,32.1,12.4,0000.0,0006.18,0002.77,0001.75
2023-05-07 21:24:00,,0827.4,5.01,0.00,30.6,26.1,00.0,38.8,31.8,12.7,0000.0,0007.25,0002.73,0001.76
2023-05-07 21:25:00,,0827.4,5.00,0.00,30.5,25.7,00.0,38.7,31.6,13.3,0000.0,0007.30,0002.72,0001.78
2023-05-07 21:26:00,,0827.3,5.01,0.00,30.4,25.9,00.0,38.7,31.5,12.9,0000.0,0007.27,0002.77,0001.81
2023-05-07 21:27:00,,0827.4,5.00,0.00,30.3,26.3,00.0,38.7,31.5,13.2,0000.0,0007.17,0002.79,0001.86
2023-05-07 21:28:00,,0827.4,5.00,0.00,30.2,26.7,00.0,38.7,31.5,13.4,0000.0,0007.75,0002.83,0001.90
2023-05-07 21:29:00,,0827.4,5.00,0.00,30.2,27.1,00.0,38.7,31.5,13.4,0000.0,0008.14,0002.91,0001.91
2023-05-07 21:30:00,,0827.4,5.00,0.00,30.2,27.5,00.0,38.6,31.6,13.5,0000.0,0008.18,0002.94,0001.92
2023-05-07 21:31:00,,0827.4,4.99,0.00,30.2,27.8,00.0,38.6,31.6,13.5,0000.0,0008.07,0002.97,0001.94
2023-05-07 21:32:00,,0827.4,5.00,0.00,30.2,28.0,00.0,38.6,31.7,13.5,0000.0,0008.35,0003.02,0001.95
2023-05-07 21:33:00,,0827.4,5.01,0.00,30.2,28.2,00.0,38.6,31.7,13.9,0000.0,0008.97,0003.05,0001.96
2023-05-07 21:34:00,,0827.4,5.01,0.00,30.2,28.4,00.0,38.6,31.8,13.4,0000.0,0009.02,0003.05,0001.95
2023-05-07 21:35:00,,0827.4,4.99,0.00,30.3,28.6,00.0,38.6,31.8,13.3,0000.0,0008.43,0003.08,0001.94
2023-05-07 21:36:00,,0827.4,4.99,0.00,30.3,28.7,00.0,38.6,31.9,13.4,0000.0,0008.86,0003.08,0001.93
2023-05-07 21:37:00,,0827.4,5.01,0.00,30.3,28.8,00.0,38.6,31.9,14.0,0000.0,0009.87,0003.07,0001.92
2023-05-07 21:38:00,,0827.4,5.00,0.00,30.3,28.9,00.0,38.6,31.9,14.1,0000.0,0010.24,0003.11,0001.94
2023-05-07 21:39:00,,0827.4,5.00,0.00,30.4,29.0,00.0,38.7,31.9,13.9,0000.0,0010.02,0003.16,0001.96
2023-05-07 21:40:00,,0827.5,4.99,0.00,30.4,29.0,00.0,38.7,32.0,14.2,0000.0,0009.87,0003.21,0002.02
2023-05-07 21:41:00,,0827.8,5.00,0.00,30.4,29.1,00.0,38.7,32.0,14.2,0000.0,0009.92,0003.24,0002.08
2023-05-07 21:42:00,,0827.9,5.00,0.00,30.4,29.2,00.0,38.7,32.0,13.8,0000.0,0010.02,0003.26,0002.13
2023-05-07 21:43:00,,0827.6,5.01,0.00,30.5,29.2,00.0,38.7,32.1,13.8,0000.0,0010.03,0003.30,0002.17
2023-05-07 21:44:00,,0827.5,5.01,0.00,30.5,29.3,00.0,38.7,32.1,13.9,0000.0,0009.82,0003.33,0002.20
2023-05-07 21:45:00,,0827.5,4.99,0.00,30.5,29.3,00.0,38.8,32.1,13.9,0000.0,0009.71,0003.35,0002.24
2023-05-07 21:46:00,,0827.5,4.99,0.00,30.5,29.3,00.0,38.8,32.2,13.7,0000.0,0009.72,0003.38,0002.29
2023-05-07 21:47:00,,0827.7,5.01,0.00,30.6,29.4,00.0,38.8,32.2,13.3,0000.0,0009.31,0003.41,0002.34
2023-05-07 21:48:00,,0827.6,5.01,0.00,30.6,29.4,00.0,38.8,32.2,13.6,0000.0,0008.34,0003.45,0002.36
2023-05-07 21:49:00,,0827.8,5.00,0.00,30.6,29.4,00.0,38.8,32.2,13.4,0000.0,0009.17,0003.45,0002.33
2023-05-07 21:50:00,,0827.9,4.99,0.00,30.6,29.4,00.0,38.9,32.3,13.2,0000.0,0009.31,0003.45,0002.31
2023-05-07 21:51:00,,0827.4,4.99,0.00,30.7,29.5,00.0,38.9,32.3,13.2,0000.0,0009.22,0003.41,0002.27
2023-05-07 21:52:00,,0827.7,5.00,0.00,30.7,29.5,00.0,38.9,32.3,13.1,0000.0,0009.27,0003.39,0002.23
2023-05-07 21:53:00,,0827.5,5.01,0.00,30.7,29.5,00.0,38.9,32.3,13.1,0000.0,0009.76,0003.37,0002.21
2023-05-07 21:54:00,,0827.6,5.00,0.00,30.7,29.6,00.0,39.0,32.3,13.3,0000.0,0010.27,0003.32,0002.19
2023-05-07 21:55:00,,0827.7,4.99,0.00,30.8,29.6,00.0,39.0,32.4,13.2,0000.0,0010.08,0003.29,0002.19
2023-05-07 21:56:00,,0827.7,5.00,0.00,30.8,29.6,00.0,39.0,32.4,13.0,0000.0,0010.02,0003.30,0002.18
2023-05-07 21:57:00,,0827.7,4.99,0.00,30.8,29.3,00.0,39.0,32.4,13.4,0000.0,0010.19,0003.31,0002.19
2023-05-07 21:58:00,,0827.7,5.00,0.00,30.8,27.2,00.0,38.9,32.1,13.3,0000.0,0010.30,0003.32,0002.20
2023-05-07 21:59:00,,0827.6,4.99,0.00,30.6,25.7,00.0,38.8,31.8,13.2,0000.0,0010.32,0003.33,0002.21
